Location: Unspecified
(0.0000°N, 0.0000°E)
Time: 17:00:09
(UTC+02:00)

Palapa 6 Rocket - Visible Passes

Search period start: 05 July 2015 00:00
Search period end: 15 July 2015 00:00
Orbit: 485 x 1226 km, 22.7° (Epoch: 04 July)

Date Brightness Start Highest point End Pass type
(mag) Time Alt. Az. Time Alt. Az. Time Alt. Az.
05 Jul 6.3 05:35:13 11° SSE 05:35:13 11° SSE 05:35:37 10° SSE visible
05 Jul 5.9 07:17:53 10° SSW 07:20:55 13° S 07:24:02 10° SSE visible
06 Jul 6.0 07:05:37 10° SSW 07:07:45 11° S 07:09:54 10° SSE visible
07 Jul 6.0 06:54:20 10° S 06:54:37 10° S 06:54:50 10° S visible
11 Jul 5.6 22:28:49 10° NW 22:29:45 15° NNW 22:29:45 15° NNW visible
12 Jul 6.0 07:36:54 10° S 07:39:25 12° SSE 07:42:16 10° SE visible
12 Jul 5.6 20:28:35 10° N 20:30:02 11° NNE 20:31:29 10° NNE visible
12 Jul 5.0 22:15:20 10° NW 22:17:24 22° NNW 22:17:24 22° NNW visible
13 Jul 5.9 07:23:37 10° S 07:26:12 13° SSE 07:29:09 10° SE visible
13 Jul 4.2 22:01:51 10° NW 22:05:05 34° NNW 22:05:05 34° NNW visible
14 Jul 5.8 07:10:20 10° S 07:12:59 13° SSE 07:16:03 10° SE visible
14 Jul 3.4 21:48:22 10° NW 21:52:47 51° N 21:52:47 51° N visible
